Milwaukee, WI

5:13 PM CDT on August 18, 2017 (GMT -0500)
Gen Mitchell International

Weather History for KMKE - August, 2017

Change the Weather History Date:

Sunday, August 13, 2017

  Actual Average Record
Temperature  
Mean Temperature 67 °F 71 °F  
Max Temperature 77 °F 79 °F 97 °F (1918)
Min Temperature 57 °F 64 °F 48 °F (1961)
Degree Days  
Heating Degree Days 0 0  
Month to date heating degree days 3 0  
Since 1 June heating degree days 18 95  
Since 1 July heating degree days 4 11  
Cooling Degree Days 2 7  
Month to date cooling degree days 80 91  
Year to date cooling degree days 513 463  
Since 1 June cooling degree days 492 433  
Growing Degree Days 17 (Base 50)    
Moisture  
Dew Point 55 °F    
Average Humidity 65    
Maximum Humidity 86    
Minimum Humidity 43    
Precipitation  
Precipitation 0.00 in 0.14 in 0.76 in (1977)
Month to date precipitation 0.45 1.71  
Year to date precipitation 26.14 21.92  
Snow  
Snow 0.00 in 0.00 in 0.00 in ()
Month to date snowfall 0.0 0.0  
Since 1 June snowfall 0.0 0.0  
Since 1 July snowfall 0.0 0.0  
Snow Depth 0.00 in    
Sea Level Pressure  
Sea Level Pressure 30.04 in    
Wind  
Wind Speed 5 mph (SSE)    
Max Wind Speed 13 mph    
Max Gust Speed 15 mph    
Visibility 10 miles    
Events      
T = Trace of Precipitation, MM = Missing Value Source: NWS Daily Summary

Daily Weather History Graph

Daily Weather History Graph

Search for Another Location

Airport or City:

Trip Planner

Search our weather history database for the weather conditions in past years. The results will help you decide how hot, cold, wet, or windy it might be!

Date:

Astronomy

Aug. 13, 2017 Rise Set
Actual Time 5:55 AM CDT 7:56 PM CDT
Civil Twilight 5:24 AM CDT 8:27 PM CDT
Nautical Twilight 4:47 AM CDT 9:04 PM CDT
Astronomical Twilight 4:05 AM CDT 9:45 PM CDT
Moon 11:21 PM CDT (8/13) 12:03 PM CDT (8/13)
Length of Visible Light 15h 02m
Length of Day
14h 00m
Waning Gibbous, 65% of the Moon is Illuminated
Aug 13
Waning Gibbous
Aug 14
Last Quarter
Aug 21
New
Aug 29
First Quarter
Sep 6
Full

Hourly Weather History & Observations

Time (CDT) Temp. Dew Point Humidity Pressure Visibility Wind Dir Wind Speed Gust Speed Precip Events Conditions
12:52 AM 62.1 °F 55.9 °F 80% 30.06 in 10.0 mi Calm Calm - N/A   Partly Cloudy
1:52 AM 64.0 °F 57.0 °F 78% 30.06 in 10.0 mi WSW 5.8 mph - N/A   Clear
2:52 AM 63.0 °F 55.9 °F 78% 30.07 in 10.0 mi WSW 3.5 mph - N/A   Partly Cloudy
3:52 AM 63.0 °F 55.0 °F 75% 30.06 in 10.0 mi Calm Calm - N/A   Partly Cloudy
4:52 AM 60.1 °F 54.0 °F 80% 30.06 in 10.0 mi West 3.5 mph - N/A   Scattered Clouds
5:52 AM 57.9 °F 54.0 °F 87% 30.07 in 10.0 mi Calm Calm - N/A   Scattered Clouds
6:52 AM 57.9 °F 54.0 °F 87% 30.08 in 10.0 mi Calm Calm - N/A   Scattered Clouds
7:52 AM 66.9 °F 54.0 °F 63% 30.08 in 10.0 mi Calm Calm - N/A   Mostly Cloudy
8:52 AM 70.0 °F 55.0 °F 59% 30.08 in 10.0 mi WNW 3.5 mph - N/A   Mostly Cloudy
9:52 AM 73.9 °F 53.1 °F 48% 30.08 in 10.0 mi Variable 4.6 mph - N/A   Mostly Cloudy
10:52 AM 75.9 °F 52.0 °F 43% 30.07 in 10.0 mi ESE 6.9 mph - N/A   Mostly Cloudy
11:52 AM 75.0 °F 54.0 °F 48% 30.07 in 10.0 mi SE 10.4 mph - N/A   Mostly Cloudy
12:52 PM 75.0 °F 54.0 °F 48% 30.06 in 10.0 mi SE 11.5 mph - N/A   Mostly Cloudy
1:52 PM 73.0 °F 55.9 °F 55% 30.05 in 10.0 mi ESE 9.2 mph - N/A   Overcast
2:52 PM 73.9 °F 55.9 °F 53% 30.04 in 10.0 mi SE 9.2 mph - N/A   Mostly Cloudy
3:52 PM 73.9 °F 55.0 °F 52% 30.04 in 10.0 mi ESE 6.9 mph - N/A   Mostly Cloudy
4:52 PM 72.0 °F 57.0 °F 59% 30.03 in 10.0 mi SE 6.9 mph - N/A   Mostly Cloudy
5:52 PM 73.9 °F 55.0 °F 52% 30.01 in 10.0 mi SE 8.1 mph - N/A   Scattered Clouds
6:52 PM 72.0 °F 54.0 °F 53% 29.99 in 10.0 mi SE 8.1 mph - N/A   Scattered Clouds
7:52 PM 70.0 °F 57.0 °F 63% 29.97 in 10.0 mi SSE 8.1 mph - N/A   Mostly Cloudy
8:52 PM 68.0 °F 57.0 °F 68% 29.98 in 10.0 mi South 5.8 mph - N/A   Mostly Cloudy
9:52 PM 68.0 °F 57.0 °F 68% 29.98 in 10.0 mi SSW 4.6 mph - N/A   Mostly Cloudy
10:52 PM 68.0 °F 57.0 °F 68% 29.97 in 10.0 mi SSW 3.5 mph - N/A   Mostly Cloudy
11:52 PM 69.1 °F 57.0 °F 65% 29.97 in 10.0 mi SSW 3.5 mph - N/A   Mostly Cloudy